Location: City of Moscow
(46.7306°N, 116.9989°W)
Time: 21:13:57
(UTC+00:00)

SL-4 R/B - Pass Details

Date: 11 December 2025
Orbit: 386 x 522 km, 51.6° (Epoch: 12 January)

Event Time Altitude Azimuth Distance (km) Brightness Sun altitude
Exits shadow 14:19:37 16° 283° (WNW) 1,144 3.0 -10.4°
Maximum altitude 14:21:57 46° 214° (SW) 539 1.9 -10.0°
Drops below altitude 10° 14:24:58 10° 140° (SE) 1,410 5.3 -9.5°
Sets 14:27:03 0° 134° (SE) 2,257 6.7 -9.2°
